• In Russia
  • List of Countries
  • For 7 days
  • Water Temperature
  • Satellite Maps
  • Weather Map
  • Weather Widgets
  • user-avatar
    Login

    Hourly Weather Annaba

    Today, 22 September, Saturday

    Time Temperature Precipitation Wind Pressure Humidity
    00:00 +25°C° 0.7 mm 4 mps 762 mmHg 85%
    01:00 +25°C° 0.7 mm 4 mps 762 mmHg 86%
    02:00 +25°C° 0.4 mm 4 mps 762 mmHg 86%
    03:00 +25°C° 0.4 mm 4 mps 762 mmHg 85%
    04:00 +25°C° 0.4 mm 4 mps 762 mmHg 85%
    05:00 +25°C° 0.3 mm 4 mps 762 mmHg 84%
    06:00 +25°C° 0.3 mm 4 mps 762 mmHg 84%
    07:00 +25°C° 0.3 mm 4 mps 763 mmHg 84%
    08:00 +26°C° 0.2 mm 4 mps 763 mmHg 79%
    09:00 +27°C° 0.2 mm 5 mps 763 mmHg 74%
    10:00 +28°C° 0.2 mm 5 mps 764 mmHg 69%
    11:00 +29°C° 0.1 mm 5 mps 763 mmHg 64%
    12:00 +30°C° 0.1 mm 6 mps 763 mmHg 59%
    13:00 +32°C° 0.1 mm 6 mps 763 mmHg 55%
    14:00 +32°C° 0 mm 6 mps 763 mmHg 57%
    15:00 +30°C° 0 mm 6 mps 763 mmHg 59%
    16:00 +30°C° 0 mm 6 mps 763 mmHg 61%
    17:00 +29°C° 0.3 mm 5 mps 763 mmHg 67%
    18:00 +28°C° 0.3 mm 4 mps 763 mmHg 73%
    19:00 +27°C° 0.3 mm 4 mps 764 mmHg 78%
    20:00 +26°C° 0.1 mm 3 mps 764 mmHg 81%
    21:00 +26°C° 0.1 mm 3 mps 765 mmHg 83%
    22:00 +26°C° 0.1 mm 3 mps 765 mmHg 86%
    23:00 +25°C° 0 mm 3 mps 765 mmHg 87%

    Tomorrow, 23 September, Sunday

    Time Temperature Precipitation Wind Pressure Humidity
    00:00 +25°C° 0 mm 3 mps 765 mmHg 88%
    01:00 +25°C° 0 mm 3 mps 765 mmHg 89%
    02:00 +25°C° 0 mm 3 mps 765 mmHg 89%
    03:00 +24°C° 0 mm 3 mps 764 mmHg 89%
    04:00 +24°C° 0 mm 3 mps 764 mmHg 89%
    05:00 +24°C° 0 mm 2 mps 764 mmHg 88%
    06:00 +24°C° 0 mm 2 mps 764 mmHg 86%
    07:00 +24°C° 0 mm 2 mps 764 mmHg 85%
    08:00 +26°C° 0 mm 2 mps 765 mmHg 76%
    09:00 +27°C° 0 mm 2 mps 765 mmHg 68%
    10:00 +29°C° 0 mm 2 mps 765 mmHg 59%
    11:00 +30°C° 0 mm 3 mps 765 mmHg 55%
    12:00 +31°C° 0 mm 3 mps 765 mmHg 50%
    13:00 +33°C° 0 mm 3 mps 764 mmHg 46%
    14:00 +31°C° 0 mm 3 mps 764 mmHg 47%
    15:00 +32°C° 0 mm 4 mps 764 mmHg 48%
    16:00 +32°C° 0 mm 4 mps 763 mmHg 49%
    17:00 +30°C° 0 mm 3 mps 763 mmHg 55%
    18:00 +28°C° 0 mm 2 mps 763 mmHg 61%
    19:00 +27°C° 0 mm 2 mps 763 mmHg 67%
    20:00 +26°C° 0 mm 2 mps 764 mmHg 70%
    21:00 +26°C° 0 mm 1 mps 764 mmHg 73%
    22:00 +25°C° 0 mm 1 mps 765 mmHg 76%
    23:00 +25°C° 0 mm 1 mps 764 mmHg 76%

    Day after tomorrow, 24 September, Monday

    Time Temperature Precipitation Wind Pressure Humidity
    00:00 +25°C° 0 mm 2 mps 764 mmHg 76%
    01:00 +25°C° 0 mm 2 mps 764 mmHg 76%
    02:00 +24°C° 0 mm 2 mps 764 mmHg 76%
    03:00 +24°C° 0 mm 2 mps 763 mmHg 76%
    04:00 +24°C° 0 mm 2 mps 763 mmHg 75%
    05:00 +24°C° 0 mm 2 mps 763 mmHg 73%
    06:00 +24°C° 0 mm 2 mps 763 mmHg 71%
    07:00 +24°C° 0 mm 2 mps 763 mmHg 69%
    08:00 +26°C° 0 mm 2 mps 763 mmHg 61%
    09:00 +28°C° 0 mm 2 mps 764 mmHg 54%
    10:00 +30°C° 0 mm 2 mps 764 mmHg 46%
    11:00 +31°C° 0 mm 3 mps 763 mmHg 46%
    12:00 +33°C° 0 mm 4 mps 763 mmHg 45%
    13:00 +33°C° 0 mm 4 mps 763 mmHg 44%
    14:00 +33°C° 0 mm 5 mps 763 mmHg 48%
    15:00 +33°C° 0 mm 5 mps 762 mmHg 51%
    16:00 +32°C° 0 mm 5 mps 762 mmHg 54%
    17:00 +30°C° 0 mm 4 mps 762 mmHg 61%
    18:00 +29°C° 0 mm 3 mps 763 mmHg 68%
    19:00 +27°C° 0 mm 3 mps 763 mmHg 75%
    20:00 +27°C° 0 mm 2 mps 763 mmHg 79%
    21:00 +26°C° 0 mm 2 mps 763 mmHg 83%
    22:00 +26°C° 0 mm 1 mps 764 mmHg 86%
    23:00 +26°C° 0 mm 1 mps 764 mmHg 87%

    25 September, Tuesday

    Time Temperature Precipitation Wind Pressure Humidity
    00:00 +25°C° 0 mm 1 mps 764 mmHg 89%
    01:00 +25°C° 0 mm 1 mps 764 mmHg 90%
    02:00 +25°C° 0 mm 1 mps 763 mmHg 90%
    03:00 +24°C° 0 mm 1 mps 763 mmHg 90%
    04:00 +24°C° 0 mm 1 mps 763 mmHg 90%
    05:00 +24°C° 0 mm 1 mps 763 mmHg 90%
    06:00 +24°C° 0 mm 1 mps 763 mmHg 89%
    07:00 +24°C° 0 mm 1 mps 763 mmHg 88%
    08:00 +26°C° 0 mm 1 mps 763 mmHg 78%
    09:00 +28°C° 0 mm 1 mps 764 mmHg 68%
    10:00 +29°C° 0 mm 1 mps 764 mmHg 58%
    11:00 +30°C° 0 mm 2 mps 764 mmHg 55%
    12:00 +31°C° 0 mm 3 mps 763 mmHg 51%
    13:00 +33°C° 0 mm 3 mps 763 mmHg 47%
    14:00 +33°C° 0 mm 4 mps 763 mmHg 49%
    15:00 +32°C° 0 mm 4 mps 762 mmHg 50%
    16:00 +32°C° 0 mm 4 mps 762 mmHg 52%
    17:00 +30°C° 0 mm 3 mps 762 mmHg 57%
    18:00 +28°C° 0 mm 2 mps 763 mmHg 62%
    19:00 +27°C° 0 mm 2 mps 763 mmHg 67%
    20:00 +26°C° 0 mm 1 mps 763 mmHg 70%
    21:00 +26°C° 0 mm 1 mps 764 mmHg 72%
    22:00 +23°C° 0 mm 0 mps 764 mmHg 74%
    23:00 +23°C° 0 mm 0 mps 764 mmHg 75%

    26 September, Wednesday

    Time Temperature Precipitation Wind Pressure Humidity
    00:00 +23°C° 0 mm 0 mps 764 mmHg 76%
    01:00 +23°C° 0 mm 0 mps 764 mmHg 77%
    02:00 +22°C° 0 mm 0 mps 764 mmHg 78%
    03:00 +22°C° 0 mm 0 mps 764 mmHg 78%
    04:00 +24°C° 0 mm 1 mps 764 mmHg 79%
    05:00 +24°C° 0 mm 1 mps 764 mmHg 79%
    06:00 +24°C° 0 mm 1 mps 764 mmHg 78%
    07:00 +24°C° 0 mm 1 mps 764 mmHg 78%
    08:00 +26°C° 0 mm 1 mps 764 mmHg 70%
    09:00 +27°C° 0 mm 1 mps 764 mmHg 63%
    10:00 +29°C° 0 mm 1 mps 765 mmHg 55%
    11:00 +30°C° 0 mm 2 mps 764 mmHg 52%
    12:00 +31°C° 0 mm 3 mps 764 mmHg 49%
    13:00 +33°C° 0 mm 4 mps 764 mmHg 46%
    14:00 +32°C° 0 mm 4 mps 764 mmHg 48%
    15:00 +32°C° 0 mm 5 mps 764 mmHg 50%
    16:00 +32°C° 0 mm 5 mps 764 mmHg 52%
    17:00 +30°C° 0 mm 5 mps 764 mmHg 59%
    18:00 +28°C° 0 mm 4 mps 764 mmHg 66%
    19:00 +27°C° 0 mm 4 mps 765 mmHg 73%
    20:00 +27°C° 0.1 mm 4 mps 765 mmHg 76%
    21:00 +26°C° 0.1 mm 4 mps 765 mmHg 78%
    22:00 +26°C° 0.1 mm 3 mps 766 mmHg 81%
    23:00 +26°C° 0 mm 3 mps 765 mmHg 81%

    27 September, Thursday

    Time Temperature Precipitation Wind Pressure Humidity
    00:00 +26°C° 0 mm 4 mps 765 mmHg 81%
    01:00 +25°C° 0 mm 4 mps 765 mmHg 81%
    02:00 +25°C° 0 mm 4 mps 765 mmHg 81%
    03:00 +25°C° 0 mm 4 mps 765 mmHg 81%
    04:00 +25°C° 0 mm 4 mps 765 mmHg 81%
    05:00 +25°C° 0 mm 4 mps 765 mmHg 80%
    06:00 +25°C° 0 mm 4 mps 765 mmHg 80%
    07:00 +25°C° 0 mm 4 mps 765 mmHg 79%
    08:00 +26°C° 0 mm 4 mps 765 mmHg 72%
    09:00 +28°C° 0 mm 4 mps 765 mmHg 64%
    10:00 +29°C° 0 mm 4 mps 766 mmHg 56%
    11:00 +30°C° 0 mm 4 mps 765 mmHg 53%
    12:00 +32°C° 0 mm 5 mps 765 mmHg 49%
    13:00 +33°C° 0 mm 5 mps 765 mmHg 46%
    14:00 +33°C° 0 mm 5 mps 764 mmHg 47%
    15:00 +33°C° 0 mm 6 mps 764 mmHg 48%
    16:00 +33°C° 0 mm 6 mps 764 mmHg 49%
    17:00 +32°C° 0 mm 6 mps 764 mmHg 52%
    18:00 +30°C° 0 mm 6 mps 764 mmHg 56%
    19:00 +29°C° 0 mm 6 mps 764 mmHg 59%
    20:00 +28°C° 0 mm 5 mps 764 mmHg 61%
    21:00 +28°C° 0 mm 5 mps 764 mmHg 63%
    22:00 +27°C° 0 mm 4 mps 764 mmHg 65%
    23:00 +27°C° 0 mm 4 mps 764 mmHg 66%
    Show more